www.pogodaiklimat.ru

Погода и климат >> Архив погоды >> Россия >> Крым >> Нижнегорский


ПОГОДА в Нижнегорском

  • Прогноз погоды в Нижнегорском
  • Монитор погоды в Нижнегорском
  • Климат города

АРХИВ ПОГОДЫ в Нижнегорском

Время (UTC), дата Ветер
(напр.,м/с)
 
Видим.   Явления Облачность Т
(С)
Тd
(С)
f
(%)
Тe
(С)
Тes
(С)
Комфортность P
(гПа)
Po
(гПа)
Тmin
(С)
Tmax
(С)
R
(мм)
R24
(мм)
S
(см)
03 13.09 Ю 1 4000 м дымка ясно +12.4 +11.9 97 +12 +12 1021.0 1018.6 +12.4
06 13.09 штиль 0 50 км 3/0
[Ac trans Ci sp]
+19.0 +14.8 77 +20 +25 1020.7 1018.3 +12.4
09 13.09 В 4 50 км 6/0
[Ci fib]
+25.2 +14.3 51 +28 +34 жарко 1019.4 1017.1
12 13.09 В 5
{11}
50 км 6/0
[Cc]
+25.4 +13.7 48 +28 +31 жарко 1017.4 1015.1
15 13.09 СВ 5
{10}
50 км 9/0
[Cc]
+23.6 +14.9 58 +26 +27 жарко 1016.2 1013.9
18 13.09 СВ 2 20 км 9/0
[Ac trans]
+19.8 +17.2 85 +23 +23 комфорт 1014.7 1012.4 +26.3
21 13.09 ЮЗ 3 20 км 10/10 600 м
[Sc]
+18.2 +16.2 88 +19 +19 1015.7 1013.3
00 14.09 СВ 5 20 км слабый ливневой дождь 10/10 600 м
[Cb cap]
+17.0 +15.7 92 +16 +16 1011.9 1009.5
03 14.09 СВ 2 20 км {ливн. осадки} 10/10 600 м
[Cb cap]
+16.8 +15.4 91 +17 +17 1011.9 1009.5 +16.8 0.6
06 14.09 СВ 4 20 км {ливн. осадки} 9/0
[Ac trans]
+23.0 +18.3 75 +29 +30 очень
душно
1010.2 1007.9 +16.8 0.6
09 14.09 В 4
{11}
20 км 9/4 600 м
[Sc Ac trans]
+24.8 +15.2 55 +28 +30 жарко 1009.1 1006.8
12 14.09 С 3
{14}
4000 м гроза, ливневой дождь [макс. диам. градин 3 мм] 10/10 600 м
[Cb cap]
+19.3 +18.3 94 +22 +22 комфорт 1008.7 1006.4
15 14.09 СЗ 3 4000 м гроза, ливневой дождь 10/10 600 м
[Cb cap]
+18.6 +18.1 97 +20 +20 1008.9 1006.6 13
18 14.09 В 2 20 км {гроза, ливн. осадки} 6/6 600 м
[Cu Sc]
+19.4 +18.1 92 +22 +22 комфорт 1008.4 1006.1 +26.2 15
21 14.09 СЗ 2 4000 м гроза, ливневой дождь 10/10 600 м
[Cb cap]
+19.3 +18.5 95 +22 +22 комфорт 1008.4 1006.1
00 15.09 З 1 20 км зарница {гроза, ливн. осадки} 6/6 600 м
[Cb cap]
+17.6 +17.1 97 +19 +19 1007.7 1005.4
03 15.09 ЮЗ 1 4000 м дымка 10/10 600 м
[Cb cap]
+17.4 +16.8 96 +18 +18 1007.4 1005.1 +17.4 11
06 15.09 З 2 4000 м дымка 10/10 600 м
[Sc]
+19.2 +18.3 95 +22 +22 комфорт 1007.4 1005.1 +17.3 9
09 15.09 Ю 1 20 км 8/8 600 м
[Sc]
+22.6 +19.1 81 +29 +31 очень
душно
1006.6 1004.3
12 15.09 ЮВ 1 20 км гроза без осадков 9/9 600 м
[Cb cap]
+22.6 +18.5 78 +28 +29 душно 1006.5 1004.2
15 15.09 СЗ 2 4000 м слабый ливневой дождь {гроза} 9/9 600 м
[Cb cap]
+18.8 +18.5 98 +21 +21 комфорт 1007.4 1005.1 9
18 15.09 СЗ 2 20 км {гроза, ливн. осадки} 9/9 600 м
[Cb cap]
+18.6 +18.3 98 +20 +20 1009.4 1007.1 +23.7 11
21 15.09 СЗ 3 20 км 9/9 600 м
[Sc]
+18.0 +17.3 96 +18 +18 1009.6 1007.3
00 16.09 С 3 20 км 10/10 600 м
[Sc]
+17.8 +17.2 96 +18 +18 1010.8 1008.5
03 16.09 С 5 4000 м дымка 9/0
[Ac trans]
+16.6 +15.9 96 +16 +16 1011.9 1009.5 +16.6 2
06 16.09 ЮЗ 3 4000 м дымка 9/0
[Ac trans]
+17.2 +15.8 91 +17 +18 1013.3 1010.9 +16.6
09 16.09 СЗ 4 20 км 10/10 600 м
[Cu Sc]
+20.1 +16.4 79 +23 +23 комфорт 1014.5 1012.2
12 16.09 СЗ 2 20 км 8/3 600 м
[Cu hum Ac cast Cc]
+23.9 +14.9 57 +27 +30 жарко 1014.8 1012.5
15 16.09 СЗ 4 50 км 8/6 600 м
[Cu Sc Cc]
+22.7 +15.0 62 +27 +27 душно 1015.6 1013.3
18 16.09 СЗ 2 20 км в посл. час ливневой дождь 10/10 600 м
[Cb cap]
+19.1 +17.8 92 +21 +21 комфорт 1017.8 1015.5 +23.9 0.3
21 16.09 штиль 0 20 км ясно +17.1 +15.9 93 +17 +17 1019.1 1016.7
00 17.09 С 2 4000 м дымка ясно +15.5 +14.5 94 +15 +15 1019.9 1017.5
03 17.09 СЗ 2 4000 м дымка ясно +13.0 +12.4 96 +12 +12 1021.0 1018.6 +13.0 0.3
06 17.09 З 2 50 км ясно +16.6 +12.6 77 +17 +20 1022.7 1020.3 +13.0
09 17.09 СЗ 4 50 км 3/3 600 м
[Cu med, cong]
+19.2 +8.9 51 +20 +25 1023.5 1021.1
12 17.09 С 2 50 км ясно +19.8 +7.9 46 +21 +29 комфорт 1023.1 1020.7
15 17.09 С 2 50 км ясно +19.4 +6.4 43 +21 +21 комфорт 1023.1 1020.7
18 17.09 штиль 0 20 км ясно +12.4 +10.0 85 +12 +12 1023.5 1021.1 +19.9
21 17.09 штиль 0 20 км ясно +10.2 +8.5 89 +9 +9 1023.8 1021.4
00 18.09 штиль 0 20 км ясно +9.0 +7.7 92 +8 +8 1023.9 1021.4
03 18.09 З 2 20 км 3/0
[Ac trans]
+6.6 +6.2 97 +4 +4 1024.0 1021.5 +6.6
06 18.09 З 2 50 км ясно +12.2 +9.8 85 +11 +15 1025.1 1022.7 +6.6
09 18.09 С 2 50 км 3/0
[Ci fib]
+20.5 +6.7 41 +22 +32 комфорт 1024.6 1022.2
12 18.09 СЗ 2 50 км 1/0
[Ci fib]
+21.8 +6.6 37 +23 +30 комфорт 1024.0 1021.7
15 18.09 СВ 2 50 км 3/0
[Ci fib]
+20.4 +6.6 41 +22 +22 комфорт 1023.2 1020.8
18 18.09 Ю 2 50 км 1/0
[Ci fib]
+12.9 +8.5 75 +12 +12 1023.5 1021.1 +21.9
21 18.09 Ю 2 20 км ясно +10.2 +8.1 87 +9 +9 1023.6 1021.2
00 19.09 ЮЗ 2 20 км ясно +9.0 +7.7 92 +7 +7 1023.7 1021.2
03 19.09 Ю 2 20 км 3/0
[Ci fib]
+8.2 +7.2 93 +6 +6 1023.7 1021.2 +8.2
06 19.09 З 2 20 км ясно +14.9 +11.3 79 +15 +18 1024.3 1021.9 +8.0
09 19.09 ЮВ 2 ясно 44 1021.3
12 19.09 СЗ 2 ясно 36 1021.3
15 19.09 В 2 ясно 42 1021.3
18 19.09 СВ 2 ясно 84 1081.3
21 19.09 штиль 0 ясно 86 1021.3
00 20.09 штиль 0 ясно 87 1021.3

 

Местоположение метеостанции Нижнегорский (Крым, Россия): широта 45.45 долгота 34.73 высота над уровнем моря 20 м.

В архиве по умолчанию представлена погода в Нижнегорском за последнюю неделю. Архивные данные за месяц целиком и за предыдущие месяцы, начиная с января 2011 года, Вы можете получить, выбрав интересующий диапазон дат из раскрывающегося списка и нажав кнопку "Ввод!".


*Определитесь, кто Вы:
робот инопланетянин человек

Внимание! Время в таблицах - всемирное. Для получения местного времени необходимо прибавить поправку, которая в Нижнегорском равна 3 ч.

Смотрите также архив погоды в соседних городах и на ближайших метеорологических станциях:

Погода в Стрелковом (Херсонская область, Украина) (18 км)
Погода в Джанкое (Крым, Россия) (40 км)
Погода в Клепинино (Крым, Россия) (44 км)
Погода в Белогорске (Крым, Россия) (46 км)
Погода в Владиславовке (Крым, Россия) (60 км)
Погода в Феодосии (Крым, Россия) (69 км)
Погода в Карадаге (Крым, Россия) (71 км)
Погода в Симферополе город (Крым, Россия) (73 км)
Погода в Симферополе (Крым, Россия) (76 км)
Погода в Геническе (Херсонская область, Украина) (80 км)

Пояснения к столбцам:

Ветер - указаны скорость ветра в м/с - средняя за 10 мин, порывы в срок и между сроками (в фигурных скобках) и направление, откуда дует ветер: С - северный, СВ - северо-восточный, В - восточный, ЮВ - юго-восточный, Ю - южный, ЮЗ - юго-западный, З - западный, СЗ - северо-западный.
Видимость - горизонтальная дальность видимости в метрах или километрах. При видимости от 1 до 10 км при отсутствии осадков обычно наблюдается дымка, при ухудшении видимости до 1 км и менее - туман. В сухую погоду видимость может ухудшаться дымом, пылью или мглою.
Явления - указаны атмосферные явления, наблюдавшиеся в срок или в последний час перед сроком; фигурными скобками обозначены явления, наблюдавшиеся между сроками (за 1-3 часа до срока); квадратными скобками обозначены град или гололедные отложения с указанием их диаметра в мм.
Облачность - указаны через наклонную черту общая и нижняя облачность в баллах и высота нижней границы облаков в метрах; квадратными скобками обозначены формы облаков: Ci - перистые, Cs - перисто-слоистые, Cc - перисто-кучевые, Ac - высококучевые, As - высокослоистые, Sc - слоисто-кучевые, Ns - слоисто-дождевые, Cu - кучевые, Cb - кучево-дождевые. Подробнее классификацию облаков см. в Атласе облаков (PDF).
T - Температура воздуха - температура, измеренная на высоте 2 м над землей.
Td - Температура точки росы - температура, при понижении до которой содержащийся в воздухе водяной пар достигнет насыщения.
f - Относительная влажность воздуха - влажноcть воздуха, измеренная на высоте 2 м над землей.
Te - Эффективная температура - температура, которую ощущает одетый по сезону человек в тени. Характеристика душности погоды. При расчете учитывается влияние влажности воздуха и скорости ветра на теплоощущения человека.
Tes - Эффективная температура на солнце - температура, которую ощущает человек, с поправкой на солнечный нагрев. Характеристика знойности погоды. Зависит от высоты солнца над горизонтом, облачности и скорости ветра. Ночью, в пасмурную погоду, а также при ветре 12 м/с и более поправка равна нулю.
P - Атмосферное давление - приведенное к уровню моря атмосферное давление.
Po - Атмосферное давление - измеренное на уровне метеостанции атмосферное давление.
Tmin - Минимальная температура - минимум температуры воздуха на высоте 2 м над землей.
Tmax - Максимальная температура - максимум температуры воздуха на высоте 2 м над землей.
R - Количество осадков - Количество выпавших осадков за период времени, мм. При наведении курсора мыши на число - период времени, за который выпало указанное количество осадков.
R24 - Количество осадков - Количество выпавших осадков за 24 часа, мм.
S - Снежный покров - Высота снежного покрова, см. При наведении курсора мыши на число - состояние снежного покрова и степень покрытия местности в баллах.